Date String (YYYY-MM-DD hh:mm:ss) UTC,Instrument flags,Ambient pressure (hPa),Sample flow (lpm),Bypass flow (lpm),Sample temperature (°C),Ambient temperature (°C),ASC tube jacket temperature (°C),LED temperature (°C),Box temperature (°C),Sample RH (%),Span deviation,Mass concentration (μg/m³),Mass concentration (μg/m³),Mass concentration (μg/m³)
DateTimeUTC,F1_M11,P_M11,Q1_M11,Q2_M11,T1_M11,T2_M11,T3_M11,T4_M11,T5_M11,U1_M11,ZSPAN_M11,X0_M11,X2_M11,X1_M11
2022-11-23 14:00:00,,0819.7,5.00,0.00,22.1,20.7,00.0,31.0,24.0,06.8,0000.0,0004.91,0002.86,0002.38
2022-11-23 14:01:00,,0819.7,5.00,0.00,22.1,20.7,00.0,31.0,24.0,06.3,0000.0,0004.98,0002.88,0002.44
2022-11-23 14:02:00,,0819.7,5.00,0.00,22.1,20.7,00.0,31.0,23.9,06.2,0000.0,0004.96,0002.84,0002.42
2022-11-23 14:03:00,,0819.7,5.01,0.00,22.1,20.7,00.0,31.0,23.9,06.7,0000.0,0004.93,0002.85,0002.45
2022-11-23 14:04:00,,0819.7,5.00,0.00,22.1,20.6,00.0,31.0,23.9,06.2,0000.0,0004.94,0002.83,0002.43
2022-11-23 14:05:00,,0819.7,4.99,0.00,22.1,20.6,00.0,31.0,23.9,06.1,0000.0,0004.66,0002.73,0002.38
2022-11-23 14:06:00,,0819.7,4.99,0.00,22.1,20.6,00.0,31.0,23.9,05.4,0000.0,0004.50,0002.61,0002.27
2022-11-23 14:07:00,,0819.6,5.00,0.00,22.0,20.6,00.0,31.0,23.9,05.6,0000.0,0004.36,0002.50,0002.19
2022-11-23 14:08:00,,0819.5,5.00,0.00,22.0,20.6,00.0,31.0,23.8,05.9,0000.0,0004.30,0002.40,0002.07
2022-11-23 14:09:00,,0819.4,5.01,0.00,22.0,20.6,00.0,31.0,23.8,06.1,0000.0,0003.53,0002.28,0001.94
2022-11-23 14:10:00,,0819.4,5.00,0.00,22.0,20.6,00.0,30.9,23.7,06.1,0000.0,0003.15,0002.03,0001.72
2022-11-23 14:11:00,,0819.3,4.99,0.00,22.0,20.5,00.0,30.9,23.7,06.1,0000.0,0002.78,0001.74,0001.44
2022-11-23 14:12:00,,0819.5,4.99,0.00,22.0,20.4,00.0,30.9,23.7,05.2,0000.0,0002.50,0001.55,0001.26
2022-11-23 14:13:00,,0819.5,5.00,0.00,21.9,20.5,00.0,30.9,23.7,05.9,0000.0,0002.29,0001.41,0001.14
2022-11-23 14:14:00,,0819.5,4.99,0.00,21.9,20.5,00.0,30.9,23.8,07.4,0000.0,0002.06,0001.26,0001.01
2022-11-23 14:15:00,,0819.6,5.03,0.00,21.9,20.5,00.0,30.9,23.7,07.5,0000.0,0001.96,0001.20,0000.95
2022-11-23 14:16:00,,0819.6,4.99,0.00,21.9,20.5,00.0,30.9,23.7,07.6,0000.0,0001.93,0001.18,0000.91
2022-11-23 14:17:00,,0819.6,4.99,0.00,21.9,20.5,00.0,30.9,23.8,07.4,0000.0,0001.96,0001.20,0000.93
2022-11-23 14:18:00,,0819.7,5.00,0.00,21.9,20.5,00.0,30.9,23.7,08.0,0000.0,0001.98,0001.23,0000.97
2022-11-23 14:19:00,,0819.7,5.02,0.00,22.0,21.1,00.0,30.8,23.8,07.7,0000.0,0002.03,0001.29,0001.03
2022-11-23 14:20:00,,0819.7,5.00,0.00,22.1,22.2,00.0,30.8,24.1,06.2,0000.0,0002.08,0001.28,0001.04
2022-11-23 14:21:00,,0819.7,4.99,0.00,22.2,22.4,00.0,30.9,24.2,05.5,0000.0,0002.11,0001.32,0001.06
2022-11-23 14:22:00,,0819.7,4.99,0.00,22.2,22.1,00.0,30.9,24.2,06.1,0000.0,0002.19,0001.38,0001.10
2022-11-23 14:23:00,,0819.7,5.00,0.00,22.2,21.8,00.0,31.0,24.2,06.5,0000.0,0002.20,0001.43,0001.15
2022-11-23 14:24:00,,0819.8,5.00,0.00,22.2,21.6,00.0,31.0,24.1,06.8,0000.0,0002.31,0001.49,0001.20
2022-11-23 14:25:00,,0819.8,5.01,0.00,22.2,21.4,00.0,31.0,24.1,06.3,0000.0,0002.49,0001.53,0001.22
2022-11-23 14:26:00,,0819.8,5.01,0.00,22.2,21.3,00.0,31.0,24.1,05.8,0000.0,0003.62,0001.45,0001.14
2022-11-23 14:27:00,,0819.8,5.01,0.00,22.2,21.2,00.0,31.0,24.1,05.8,0000.0,0003.57,0001.39,0001.07
2022-11-23 14:28:00,,0819.8,4.99,0.00,22.2,21.1,00.0,31.0,24.1,05.5,0000.0,0003.49,0001.31,0000.99
2022-11-23 14:29:00,,0819.8,5.00,0.00,22.2,21.1,00.0,31.0,24.0,05.1,0000.0,0003.48,0001.23,0000.88
2022-11-23 14:30:00,,0819.8,5.00,0.00,22.2,21.0,00.0,31.1,24.0,05.5,0000.0,0003.25,0001.08,0000.76
2022-11-23 14:31:00,,0819.8,5.01,0.00,22.2,21.0,00.0,31.1,24.1,05.9,0000.0,0003.04,0001.01,0000.71
2022-11-23 14:32:00,,0819.8,5.00,0.00,22.2,21.0,00.0,31.1,24.0,06.1,0000.0,0002.98,0000.98,0000.70
2022-11-23 14:33:00,,0819.7,4.99,0.00,22.2,21.0,00.0,31.1,24.1,05.3,0000.0,0002.89,0000.93,0000.68
2022-11-23 14:34:00,,0819.8,5.00,0.00,22.2,21.0,00.0,31.1,24.1,05.2,0000.0,0002.81,0000.88,0000.65
2022-11-23 14:35:00,,0819.8,4.99,0.00,22.2,21.0,00.0,31.1,24.1,05.5,0000.0,0002.70,0000.82,0000.61
2022-11-23 14:36:00,,0819.9,5.00,0.00,22.2,21.0,00.0,31.1,24.0,06.0,0000.0,0002.44,0000.72,0000.56
2022-11-23 14:37:00,,0819.8,5.01,0.00,22.2,21.0,00.0,31.1,24.0,06.0,0000.0,0001.07,0000.66,0000.53
2022-11-23 14:38:00,,0819.8,5.00,0.00,22.2,21.0,00.0,31.1,24.0,06.7,0000.0,0000.94,0000.61,0000.51
2022-11-23 14:39:00,,0819.8,5.00,0.00,22.2,21.0,00.0,31.1,24.0,06.5,0000.0,0000.91,0000.59,0000.48
2022-11-23 14:40:00,,0819.8,5.00,0.00,22.2,20.9,00.0,31.1,23.9,06.3,0000.0,0000.75,0000.55,0000.47
2022-11-23 14:41:00,,0819.7,5.00,0.00,22.2,20.9,00.0,31.1,23.9,05.1,0000.0,0001.84,0000.55,0000.47
2022-11-23 14:42:00,,0819.8,4.99,0.00,22.2,20.9,00.0,31.1,24.0,05.0,0000.0,0002.33,0000.54,0000.45
2022-11-23 14:43:00,,0819.8,5.00,0.00,22.2,20.9,00.0,31.1,24.0,05.0,0000.0,0002.25,0000.51,0000.43
2022-11-23 14:44:00,,0819.9,5.00,0.00,22.2,20.9,00.0,31.1,24.0,05.0,0000.0,0002.23,0000.50,0000.42
2022-11-23 14:45:00,,0819.9,5.00,0.00,22.2,20.9,00.0,31.1,24.0,04.9,0000.0,0002.26,0000.51,0000.42
2022-11-23 14:46:00,,0819.9,5.00,0.00,22.2,20.9,00.0,31.1,24.0,05.0,0000.0,0002.32,0000.52,0000.42
2022-11-23 14:47:00,,0820.0,5.01,0.00,22.2,20.9,00.0,31.1,24.0,04.9,0000.0,0002.37,0000.53,0000.42
2022-11-23 14:48:00,,0819.9,5.00,0.00,22.2,20.9,00.0,31.1,23.9,05.2,0000.0,0002.40,0000.54,0000.42
2022-11-23 14:49:00,,0819.9,4.99,0.00,22.2,20.9,00.0,31.1,24.0,05.3,0000.0,0002.41,0000.54,0000.43
2022-11-23 14:50:00,,0819.9,4.99,0.00,22.2,20.9,00.0,31.1,24.0,05.3,0000.0,0002.42,0000.55,0000.43
2022-11-23 14:51:00,,0819.9,5.00,0.00,22.2,20.9,00.0,31.1,24.0,05.5,0000.0,0002.47,0000.58,0000.45
2022-11-23 14:52:00,,0819.9,5.01,0.00,22.2,20.9,00.0,31.1,24.0,06.3,0000.0,0002.21,0000.58,0000.45
2022-11-23 14:53:00,,0819.9,4.99,0.00,22.2,20.9,00.0,31.1,23.9,05.5,0000.0,0001.79,0000.58,0000.46
2022-11-23 14:54:00,,0819.8,5.02,0.00,22.2,20.9,00.0,31.1,23.9,05.1,0000.0,0001.79,0000.58,0000.46
2022-11-23 14:55:00,,0819.9,5.01,0.00,22.2,20.8,00.0,31.1,23.9,05.5,0000.0,0001.80,0000.59,0000.46
2022-11-23 14:56:00,,0819.8,4.98,0.00,22.2,20.8,00.0,31.1,23.9,06.2,0000.0,0001.84,0000.60,0000.46
2022-11-23 14:57:00,,0819.7,4.99,0.00,22.2,20.8,00.0,31.1,23.9,06.8,0000.0,0001.81,0000.60,0000.46
2022-11-23 14:58:00,,0819.8,5.01,0.00,22.2,20.8,00.0,31.1,23.9,06.4,0000.0,0001.80,0000.60,0000.45
2022-11-23 14:59:00,,0819.8,5.01,0.00,22.1,20.8,00.0,31.1,24.0,06.1,0000.0,0001.82,0000.60,0000.45
